Location: South Cushing
(43.9686°N, 69.2945°W)
Time: 03:45:23
(UTC-05:00)

ISS - Visible Passes

Search period start: 22 February 2018 00:00
Search period end: 04 March 2018 00:00
Orbit: 403 x 407 km, 51.6° (Epoch: 22 February)

Date Brightness Start Highest point End Pass type
(mag) Time Alt. Az. Time Alt. Az. Time Alt. Az.
25 Feb -1.5 05:51:57 10° SSW 05:54:43 25° SE 05:57:29 10° E visible
26 Feb -0.9 05:00:49 10° SSE 05:02:40 14° SE 05:04:30 10° E visible
27 Feb -3.2 05:43:17 10° SW 05:46:30 57° SE 05:49:44 10° ENE visible
28 Feb -2.2 04:51:52 13° SSW 04:54:20 31° SE 04:57:17 10° ENE visible
01 Mar -1.4 04:02:09 17° SE 04:02:13 17° SE 04:04:29 10° E visible
01 Mar -3.8 05:35:08 10° WSW 05:38:23 66° NNW 05:41:40 10° NE visible
02 Mar -3.7 04:44:56 36° SW 04:46:05 71° SE 04:49:22 10° ENE visible
03 Mar -1.9 03:54:55 29° E 03:54:55 29° E 03:56:56 10° ENE visible
03 Mar -3.0 05:27:35 12° W 05:30:21 37° NNW 05:33:26 10° NE visible
